Location: Dantal?ru
(16.3091°N, 80.7028°E)
Time: 20:15:11
(UTC+00:00)

Daily predictions for brighter satellites

Satellite Brightness Start Highest point End
(mag) Time Altitude Azimuth Time Altitude Azimuth Time Altitude Azimuth
COSMOS 2428 3.9 12:38:36 10° NNE 12:42:51 21° ENE 12:47:06 10° ESE
USA 32 4.3 12:39:20 10° SSE 12:44:22 49° E 12:49:21 10° NNE
GPS 2-04 Rocket1 2.7 12:43:06 10° NW 12:47:11 62° NNE 12:51:06 10° ESE
YAOGAN 6 2.7 12:44:51 10° SSE 12:48:28 54° ENE 12:52:04 10° N
USA 234 3.4 12:42:55 10° SE 12:49:14 54° NE 12:55:33 10° NNW
Cosmos 2219 Rocket 3.1 12:45:07 10° NNE 12:49:44 26° ENE 12:54:20 10° SE
Cosmos 2341 Rocket 4.1 12:46:33 10° S 12:52:51 66° E 12:59:10 10° NNE
Nadezhda 3 Rocket 4.1 12:48:13 10° N 12:54:23 55° E 13:00:34 10° SSE
USA 116 3.1 12:52:18 10° N 12:55:23 88° W 12:58:29 10° SSW
ARIANE 5 R/B 4.2 12:41:06 10° W 12:55:28 34° SSW 12:58:56 10° SE
Okean-O 2.7 12:55:27 10° S 12:59:52 83° WSW 13:04:17 10° NNW
Cosmos 44 3.4 12:57:01 10° S 13:01:48 53° ESE 13:06:19 10° NE
SL-8 Rocket 4.1 12:57:05 10° SSE 13:03:12 55° E 13:09:20 10° NNE
DMSP B5D1-3 4.5 13:01:36 10° NNE 13:06:41 79° ESE 13:11:47 10° S
Cosmos 1953 Rocket 3.9 13:03:10 10° SSE 13:07:23 44° E 13:11:37 10° NNE
Hubble Space Telescope 1.7 13:04:19 10° WNW 13:08:17 47° SSW 13:12:15 10° SE
Cosmos-2242 4.4 13:08:35 10° NE 13:11:33 18° E 13:14:31 10° SE
Meteor 1-21 Rocket 4.3 13:06:25 10° S 13:11:56 83° W 13:17:30 10° N
Cosmos 1758 Rocket 3.7 13:08:43 10° S 13:13:03 75° W 13:17:21 10° N
BLOCK DM-SL R/B 4.3 12:59:16 10° WSW 13:17:42 26° SSW 13:22:21 10° SSE
CZ-2D R/B 3.4 13:22:56 10° SSE 13:26:35 47° ENE 13:30:14 10° N
Cosmos 2218 Rocket 3.9 13:23:20 10° S 13:29:34 80° E 13:35:53 10° N
Cosmos 2333 Rocket 2.1 13:26:13 10° NNW 13:31:53 77° ENE 13:37:30 10° SSE
USA 215 4.4 13:31:20 19° E 13:33:45 23° SE 13:38:45 10° S
Cosmos 1461 3.6 13:30:31 10° N 13:34:40 36° ENE 13:37:39 17° SE
Cosmos 1328 3.7 13:32:29 10° S 13:36:29 86° E 13:40:30 10° N
Cosmos 2237 Rocket 3.8 13:32:37 10° NNE 13:34:02 15° NNE 13:34:02 15° NNE
Cosmos 2084 Rocket 3.8 13:33:17 10° NNW 13:37:40 67° WSW 13:42:00 10° SSE
CSL-04 Rocket 3.6 13:34:37 10° SSE 13:40:00 87° ENE 13:45:29 10° NNW
Iridium 96 3.6 13:40:15 70° WNW 13:40:24 73° W 13:42:54 10° S
Cosmos 1269 Rocket 4.5 13:37:44 10° N 13:42:34 36° ENE 13:47:23 10° SE
GPS 2-12 Rocket1 3.3 13:38:41 10° WNW 13:43:23 56° N 13:44:49 39° ENE
Meteor 2-10 Rocket 4.0 13:39:04 10° NNE 13:43:46 35° E 13:48:20 10° SSE
Cosmos 864 Rocket 4.5 13:37:36 10° S 13:43:46 85° W 13:49:55 10° N
Cosmos 1939 Rocket 2.7 13:41:00 10° S 13:44:50 86° W 13:48:41 10° NNW
CZ-2C R/B 4.0 13:45:07 39° E 13:45:28 39° E 13:49:38 10° S
Centaur D-1A AC-35 4.2 13:41:04 10° WNW 13:45:42 44° NNE 13:52:30 26° ENE
Cosmos 2082 4.1 13:43:01 10° SSW 13:48:33 62° WNW 13:54:05 10° N
TIMED 4.4 13:44:50 10° N 13:49:07 58° ENE 13:53:24 10° SSE
Cosmos 1340 Rocket 4.1 13:45:28 10° NNW 13:49:11 41° W 13:52:57 10° SSW
Cosmos 1048 Rocket 4.5 13:45:13 10° NNW 13:50:15 60° WSW 13:55:16 10° S
Cosmos 1339 Rocket 4.3 13:51:46 10° N 13:57:48 68° E 14:03:55 10° SSE
ADEOS Rocket 4.1 13:56:59 10° N 14:03:38 54° WNW 14:10:55 10° SSW
CZ-4 R/B 4.2 14:05:01 10° SW 14:07:43 18° W 14:10:27 10° NW
Ariane Rocket 2.8 14:04:03 10° SSE 14:09:04 70° ENE 14:09:41 62° NNE
CZ-4C R/B 3.0 14:07:40 10° NNW 14:15:39 63° ENE 14:24:00 10° SE
OAO 3 Rocket 3.9 14:12:37 10° SW 14:16:10 41° S 14:16:10 41° S
Atlas Centaur 2 3.1 14:14:34 10° W 14:19:45 39° NNW 14:20:34 38° N
Aurora 2 Rocket 4.3 14:12:55 10° WNW 14:21:55 46° N 14:22:57 44° NNE
SWIFT 3.2 14:18:06 10° WSW 14:21:10 47° W 14:21:10 47° W
Cosmos 2263 Rocket 3.8 14:18:47 10° S 14:20:40 20° SSE 14:20:40 20° SSE
COSMOS 2428 4.5 14:22:00 10° NW 14:26:57 31° WSW 14:31:53 10° SSW
Delta 7925 Rocket 3.8 14:22:13 10° WNW 14:28:32 66° NNW 14:28:32 66° NNW
IRS-1A Rocket 4.3 14:24:26 10° S 14:30:19 80° WSW 14:36:08 10° NNW
Cosmos 2219 Rocket 4.3 14:28:57 10° NW 14:33:26 24° WSW 14:37:53 10° SSW
Palapa 6 Rocket 4.4 14:39:19 10° WNW 14:46:51 73° NNW 14:46:51 73° NNW
USA 238 DEB 4.2 14:40:52 10° SSW 14:45:18 44° S 14:45:18 44° S
USA 238 4.3 14:41:00 10° SSW 14:45:22 43° S 14:45:22 43° S
Cosmos 1727 Rocket 4.4 14:50:53 57° SW 14:50:53 57° SW 14:56:10 10° S
Centaur D AC-28 3.7 14:36:07 10° W 14:54:31 43° NNW 14:54:54 43° NNW
Ariane H10+ 4.5 15:00:09 10° SSW 15:04:24 27° SSE 15:04:24 27° SSE
USA 215 4.3 15:18:43 41° WSW 15:18:43 41° WSW 15:23:02 10° SW
CZ-3 R/B 3.9 22:24:24 56° WNW 22:28:19 62° NNW 22:38:38 10° ENE
OAO 3 Rocket 4.2 23:00:11 45° E 23:00:11 45° E 23:03:52 10° ESE
Cosmos 2297 Rocket 4.4 23:05:37 10° NNE 23:09:48 21° ENE 23:13:58 10° ESE
Cosmos 2344 4.2 23:16:20 35° NNW 23:16:20 35° NNW 23:21:07 10° N
FALCON 9 R/B 3.8 23:15:13 35° WSW 23:17:29 41° SSW 23:36:42 10° SE
Cosmos 1538 Rocket 4.5 23:12:22 10° S 23:17:40 62° ESE 23:22:56 10° NNE
Cosmos 1470 3.5 23:14:58 10° S 23:18:47 51° E 23:19:17 48° ENE
COSMOS 2455 3.1 23:15:04 10° SSW 23:21:01 68° ESE 23:26:58 10° NNE
Cosmos 2227 Rocket 4.2 23:17:06 10° NNE 23:21:37 24° ENE 23:26:05 10° ESE
Cosmos 2278 3.5 23:16:12 10° SSW 23:21:53 82° WNW 23:27:37 10° NNE
PSLV R/B 4.3 23:22:16 53° ESE 23:22:16 53° ESE 23:25:36 10° S
OAO 2 Rocket 3.3 23:27:27 66° NW 23:28:14 87° NNE 23:33:34 10° ESE
Okean O Rocket 3.7 23:28:32 10° NE 23:32:20 28° E 23:36:07 10° SSE
CZ-3B R/B 2.6 23:35:13 21° NNE 23:35:16 21° NNE 23:38:39 10° ENE
Cosmos 724 4.1 23:34:15 41° NW 23:36:20 73° WSW 23:42:09 10° SSE
Cosmos 1674 4.2 23:48:20 23° SW 23:48:20 23° SW 23:50:03 10° SSW
CZ-3 Stage 3 4.1 23:45:45 21° NW 23:48:05 25° N 23:51:16 10° NE
Cosmos 1932 4.4 23:45:17 19° NNW 23:50:13 84° WSW 23:56:38 10° SSE
Fermi 4.0 23:49:55 43° WSW 23:50:53 55° SSW 23:54:54 10° SE
Cosmos 1125 Rocket 3.6 23:52:01 26° NW 23:54:42 51° W 23:59:49 10° S
GPS 2-05 Rocket1 2.3 23:54:51 58° NE 23:54:51 58° NE 23:57:14 10° ESE
SL-14 R/B 3.4 23:52:10 10° N 23:55:59 72° E 23:59:48 10° S
